This is the latest recevied weather packets stored in our database for station/object KS5S. If no packets are shown the sender has not sent any weather packets the latest 10 day(s).
| Time | Temp. | Humidity | Pressure | Rain* | Wind** | Luminosity | Snow |
|---|---|---|---|---|---|---|---|
| 1777825415 | 24.44° C | 48% | 1019.9 hPa | 0 mm | - | 833 W/m² | - |
| 1777825111 | 24.44° C | 47% | 1020 hPa | 0 mm | - | 820 W/m² | - |
| 1777824807 | 24.44° C | 49% | 1019.7 hPa | 0 mm | - | 807 W/m² | - |
| 1777824504 | 24.44° C | 49% | 1019.8 hPa | 0 mm | - | 794 W/m² | - |
| 1777824200 | 23.89° C | 52% | 1019.8 hPa | 0 mm | - | 780 W/m² | - |
| 1777823896 | 23.33° C | 51% | 1019.9 hPa | 0 mm | - | 766 W/m² | - |
| 1777823594 | 23.89° C | 52% | 1020.2 hPa | 0 mm | - | 751 W/m² | - |
| 1777823291 | 23.89° C | 53% | 1020.2 hPa | 0 mm | - | 735 W/m² | - |
| 1777822988 | 23.33° C | 53% | 1020 hPa | 0 mm | - | 721 W/m² | - |
| 1777822686 | 23.33° C | 53% | 1020.2 hPa | 0 mm | - | 707 W/m² | - |
| 1777822384 | 22.78° C | 54% | 1020.2 hPa | 0 mm | - | 686 W/m² | - |
| 1777822081 | 22.22° C | 54% | 1020.2 hPa | 0 mm | - | 670 W/m² | - |
| 1777821779 | 22.22° C | 55% | 1020.1 hPa | 0 mm | - | 652 W/m² | - |
| 1777821476 | 22.22° C | 55% | 1020 hPa | 0 mm | - | 632 W/m² | - |
| 1777821173 | 22.78° C | 56% | 1020 hPa | 0 mm | - | 610 W/m² | - |
| 1777820870 | 22.22° C | 59% | 1019.9 hPa | 0 mm | - | 587 W/m² | - |
| 1777820566 | 21.67° C | 59% | 1019.8 hPa | 0 mm | - | 563 W/m² | - |
| 1777820263 | 21.11° C | 60% | 1019.9 hPa | 0 mm | - | 545 W/m² | - |
| 1777819960 | 21.67° C | 60% | 1020 hPa | 0 mm | - | 529 W/m² | - |
| 1777819658 | 21.11° C | 60% | 1019.9 hPa | 0 mm | - | 515 W/m² | - |
| 1777819356 | 21.11° C | 62% | 1019.8 hPa | 0 mm | - | 498 W/m² | - |
| 1777819052 | 20.56° C | 63% | 1019.9 hPa | 0 mm | - | 480 W/m² | - |
| 1777818750 | 20° C | 63% | 1019.9 hPa | 0 mm | - | 457 W/m² | - |
| 1777818446 | 20° C | 64% | 1019.8 hPa | 0 mm | - | 432 W/m² | - |
| 1777818143 | 20° C | 65% | 1019.9 hPa | 0 mm | - | 406 W/m² | - |
* Rain latest hour (hover to see other rain measurements)
** Current wind speed in m/s (hover to see current wind gust speed)